Weather History for Danbury, CT

Change the Weather History Date:

Saturday, June 15, 2013

  Actual Average Record
Temperature  
Mean Temperature 64 °F -  
Max Temperature 78 °F 79 °F 92 °F (1956)
Min Temperature 51 °F 54 °F 38 °F (1978)
Degree Days  
Heating Degree Days 1    
Growing Degree Days 14 (Base 50)    
Moisture  
Dew Point 50 °F    
Average Humidity 65    
Maximum Humidity 93    
Minimum Humidity 34    
Precipitation  
Precipitation 0.00 in - - ()
Sea Level Pressure  
Sea Level Pressure 29.95 in    
Wind  
Wind Speed 3 mph (WSW)    
Max Wind Speed 9 mph    
Max Gust Speed -    
Visibility 9 miles    
Events Rain    
Averages and records for this station are not official NWS values.
T = Trace of Precipitation, MM = Missing Value Source: NWS Daily Summary

Daily Weather History Graph

Daily Weather History Graph

Search for Another Location

Airport:

Trip Planner

Search our weather history database for the weather conditions in past years. The results will help you decide how hot, cold, wet, or windy it might be!

Date:

Astronomy

Jun. 15, 2013 Rise Set
Actual Time 5:19 AM EDT 8:29 PM EDT
Civil Twilight 4:46 AM EDT 9:03 PM EDT
Nautical Twilight 4:02 AM EDT 9:46 PM EDT
Astronomical Twilight 3:10 AM EDT 10:38 PM EDT
Moon 11:55 AM EDT (6/15) No Moon Set
Length of Visible Light 16h 17m
Length of Day
15h 09m
Waxing Crescent, 39% of the Moon is Illuminated
Jun 15
Waxing Crescent
Jun 16
First Quarter
Jun 23
Full
Jun 30
Last Quarter
Jul 8
New

Hourly Weather History & Observations

Time (EDT) Temp. Dew Point Humidity Pressure Visibility Wind Dir Wind Speed Gust Speed Precip Events Conditions
12:53 AM 54.0 °F 52.0 °F 93% 29.88 in 9.0 mi Calm Calm - N/A   Clear
1:53 AM 55.9 °F 52.0 °F 87% 29.89 in 10.0 mi Calm Calm - N/A   Clear
2:53 AM 55.9 °F 53.1 °F 90% 29.91 in 10.0 mi Calm Calm - N/A   Clear
3:53 AM 55.0 °F 52.0 °F 89% 29.91 in 10.0 mi WSW 5.8 mph - N/A   Clear
4:53 AM 53.1 °F 51.1 °F 93% 29.92 in 8.0 mi Calm Calm - N/A   Clear
5:42 AM 51.8 °F 48.2 °F 88% 29.95 in 1.2 mi Calm Calm - N/A   Clear
5:53 AM 52.0 °F 50.0 °F 93% 29.94 in 6.0 mi Calm Calm - N/A   Clear
6:53 AM 57.0 °F 54.0 °F 89% 29.96 in 9.0 mi Calm Calm - N/A   Clear
7:53 AM 63.0 °F 54.0 °F 72% 29.97 in 10.0 mi Variable 3.5 mph - N/A   Clear
8:53 AM 66.0 °F 52.0 °F 60% 30.00 in 10.0 mi WNW 5.8 mph - N/A   Clear
9:53 AM 69.1 °F 53.1 °F 57% 30.01 in 10.0 mi Variable 5.8 mph - N/A   Clear
10:53 AM 71.1 °F 46.0 °F 41% 29.99 in 10.0 mi Variable 6.9 mph - N/A   Clear
11:53 AM 72.0 °F 45.0 °F 38% 30.00 in 10.0 mi Variable 6.9 mph - N/A   Clear
12:53 PM 73.9 °F 46.0 °F 37% 29.98 in 10.0 mi NNW 9.2 mph - N/A   Clear
1:53 PM 73.9 °F 46.9 °F 38% 29.98 in 10.0 mi Variable 6.9 mph - N/A   Clear
2:53 PM 75.9 °F 48.9 °F 38% 29.95 in 10.0 mi Variable 4.6 mph - 0.00 in Rain Light Rain
3:53 PM 75.9 °F 48.0 °F 37% 29.94 in 10.0 mi West 8.1 mph - 0.00 in   Partly Cloudy
4:53 PM 77.0 °F 46.9 °F 34% 29.94 in 10.0 mi Variable 3.5 mph - N/A   Mostly Cloudy
5:53 PM 77.0 °F 46.9 °F 34% 29.94 in 10.0 mi West 6.9 mph - N/A   Clear
6:53 PM 75.0 °F 46.9 °F 37% 29.93 in 10.0 mi West 3.5 mph - N/A   Clear
7:53 PM 70.0 °F 53.1 °F 55% 29.94 in 10.0 mi WSW 3.5 mph - N/A   Clear
8:53 PM 63.0 °F 54.0 °F 72% 29.96 in 10.0 mi SW 4.6 mph - N/A   Clear
9:53 PM 59.0 °F 53.1 °F 81% 29.98 in 10.0 mi Calm Calm - N/A   Clear
10:53 PM 57.0 °F 52.0 °F 83% 29.99 in 10.0 mi WSW 4.6 mph - N/A   Clear
11:53 PM 55.0 °F 52.0 °F 89% 29.99 in 9.0 mi SW 4.6 mph - N/A   Clear